Back to catalog

STARLINK-2245

AliveCommunicationsVLEO
NORAD 48589·PAYLOAD·🇺🇸 United States

Launched May 15, 2021 from Cape Canaveral Space Force Station

Loading…

Next Passes (next 24 hours)

TLE

FreshSource: CelesTrak SupGP

Epoch: Sep 14, 2026, 21:37 UTC

1 48589C 21041AN  26257.90118056 -.00020320  00000+0 -65337-3 0  2576
2 48589  53.1577 326.2362 0001172  96.3073 351.1109 15.31716179    19

Track STARLINK-2245 in real time with AllMySat

Download on the App Store